Weather in Sosnovskoe

Russia / Nizhny Novgorod Oblast'     55°48′15″N   43°10′05″E
temp.,
°C
wind,
m/s
gust,
m/s
humid.,
%
clouds,
%
prec.,
mm/h
press.,
hPa
HPBL,
m
24 september, fri
fri2400:00+8se41195100 2.9 1012540
03:00+8se3897100 6.3 1011534
06:00+8sse3796100 0.4 1010294
09:00+9sse4890100 0.5 1010413
12:00+12s456763 0.1 10101152
15:00+13sse3663100 0.2 10101090
18:00+10se3675100 0.1 1010172
21:00+9se3881100 0.1 1010221
25 september, sat
sat2500:00+8se248894 0.0 101079
03:00+9se2581100 0.0 1010121
06:00+8se228387 0.0 101053
09:00+11sse226986 0.0 1010352
12:00+14sw125998 0.2 1010703
15:00+14wsw015342 0.4 10101078
18:00+10e22715 0.0 101012
21:00+8se228295 0.0 101026
26 september, sun
sun2600:00+9se3674100 0.0 1009147
03:00+9sse3685100 0.3 1009154
06:00+9se2590100 0.1 1008141
09:00+11sse2476100 0.4 1008268
12:00+11e3479100 0.6 1008395
15:00+11ene2383100 1.0 1009166
18:00+9nne358589 0.2 101086
21:00+10ne4108589 0.4 1011406
27 september, mon
mon2700:00+7n3894100 0.0 1013201
03:00+6n3997100 0.0 1014279
06:00+8n4994100 0.1 1015545
09:00+8n4893100 0.3 1016587
12:00+8n4790100 0.1 1018550
15:00+9nne4785100 0.2 1019656
18:00+8nne4891100 0.0 1021466
21:00+8ne4892100 0.1 1023542
28 september, tue
tue2800:00+7ne488898 0.0 1024481
03:00+6nne379188 0.0 1026370
06:00+5nne378870 0.0 1027360
09:00+7ne467148 0.0 1028566
12:00+11nne45515 0.0 10281100
15:00+11n454716 0.0 10281392
18:00+9n5971100 0.0 1029608
21:00+7nne4776100 0.0 1029647